TimeCST,TemperatureF,Dew PointF,Humidity,Sea Level PressureIn,VisibilityMPH,Wind Direction,Wind SpeedMPH,Gust SpeedMPH,PrecipitationIn,Events,Conditions,WindDirDegrees,DateUTC
12:16 AM,12.2,6.8,79,29.54,10.0,Calm,Calm,-,N/A,,Overcast,0,2014-01-30 06:16:00
12:36 AM,12.2,6.8,79,29.55,10.0,West,3.5,-,N/A,,Overcast,280,2014-01-30 06:36:00
12:56 AM,12.2,6.8,79,29.55,10.0,Calm,Calm,-,N/A,,Overcast,0,2014-01-30 06:56:00
1:16 AM,12.2,5.0,73,29.54,10.0,Calm,Calm,-,N/A,,Overcast,0,2014-01-30 07:16:00
1:36 AM,12.2,5.0,73,29.53,10.0,Calm,Calm,-,N/A,,Overcast,0,2014-01-30 07:36:00
1:56 AM,12.2,5.0,73,29.53,10.0,Calm,Calm,-,N/A,,Overcast,0,2014-01-30 07:56:00
2:16 AM,10.4,5.0,79,29.54,10.0,Calm,Calm,-,N/A,,Overcast,0,2014-01-30 08:16:00
2:36 AM,10.4,5.0,79,29.54,10.0,Calm,Calm,-,N/A,,Overcast,0,2014-01-30 08:36:00
2:56 AM,10.4,5.0,79,29.55,10.0,Calm,Calm,-,N/A,,Overcast,0,2014-01-30 08:56:00
3:16 AM,10.4,5.0,79,29.55,10.0,Calm,Calm,-,N/A,,Overcast,0,2014-01-30 09:16:00
3:37 AM,10.4,5.0,79,29.55,10.0,Calm,Calm,-,N/A,,Overcast,0,2014-01-30 09:37:00
3:56 AM,10.4,5.0,79,29.56,10.0,North,5.8,-,N/A,,Overcast,350,2014-01-30 09:56:00
4:16 AM,10.4,3.2,73,29.55,10.0,North,3.5,-,N/A,,Overcast,350,2014-01-30 10:16:00
4:36 AM,10.4,3.2,73,29.55,10.0,North,3.5,-,N/A,,Overcast,360,2014-01-30 10:36:00
4:56 AM,10.4,3.2,73,29.55,10.0,North,4.6,-,N/A,,Overcast,350,2014-01-30 10:56:00
5:16 AM,10.4,3.2,73,29.57,10.0,North,3.5,-,N/A,,Overcast,350,2014-01-30 11:16:00
5:36 AM,8.6,3.2,79,29.56,10.0,Calm,Calm,-,N/A,,Overcast,0,2014-01-30 11:36:00
5:56 AM,8.6,3.2,79,29.56,10.0,North,5.8,-,N/A,,Overcast,350,2014-01-30 11:56:00
6:16 AM,8.6,1.4,73,29.57,10.0,NNW,4.6,-,N/A,,Overcast,330,2014-01-30 12:16:00
6:36 AM,6.8,1.4,79,29.58,10.0,NNW,6.9,-,N/A,,Scattered Clouds,340,2014-01-30 12:36:00
6:56 AM,6.8,-0.4,72,29.59,10.0,NNW,4.6,-,N/A,,Scattered Clouds,340,2014-01-30 12:56:00
7:16 AM,5.0,-2.2,72,29.59,10.0,NNW,8.1,-,N/A,,Scattered Clouds,330,2014-01-30 13:16:00
7:36 AM,3.2,-4.0,72,29.61,10.0,NW,5.8,-,N/A,,Scattered Clouds,320,2014-01-30 13:36:00
7:56 AM,3.2,-5.8,66,29.63,10.0,NW,5.8,-,N/A,,Scattered Clouds,310,2014-01-30 13:56:00
8:16 AM,3.2,-5.8,66,29.64,10.0,NW,5.8,-,N/A,,Scattered Clouds,310,2014-01-30 14:16:00
8:36 AM,1.4,-5.8,72,29.66,10.0,NW,9.2,-,N/A,,Scattered Clouds,320,2014-01-30 14:36:00
8:56 AM,1.4,-7.6,66,29.67,10.0,WNW,6.9,-,N/A,,Clear,300,2014-01-30 14:56:00
9:16 AM,-0.4,-9.4,66,29.68,10.0,NW,6.9,-,N/A,,Clear,320,2014-01-30 15:16:00
9:36 AM,-0.4,-9.4,66,29.68,10.0,NW,8.1,-,N/A,,Clear,320,2014-01-30 15:36:00
9:56 AM,-0.4,-9.4,66,29.69,10.0,NW,5.8,-,N/A,,Clear,320,2014-01-30 15:56:00
10:16 AM,-0.4,-9.4,66,29.70,10.0,NW,6.9,-,N/A,,Clear,310,2014-01-30 16:16:00
10:36 AM,-0.4,-9.4,66,29.70,10.0,NW,9.2,16.1,N/A,,Clear,320,2014-01-30 16:36:00
10:56 AM,-0.4,-9.4,66,29.71,10.0,NW,9.2,-,N/A,,Clear,310,2014-01-30 16:56:00
11:16 AM,-0.4,-9.4,66,29.71,10.0,NW,5.8,16.1,N/A,,Clear,320,2014-01-30 17:16:00
11:36 AM,1.4,-9.4,61,29.71,10.0,NW,5.8,-,N/A,,Clear,320,2014-01-30 17:36:00
11:56 AM,-0.4,-9.4,66,29.71,10.0,WNW,13.8,18.4,N/A,,Scattered Clouds,290,2014-01-30 17:56:00
12:16 PM,1.4,-9.4,61,29.72,10.0,WNW,9.2,17.3,N/A,,Overcast,290,2014-01-30 18:16:00
12:36 PM,-0.4,-11.2,60,29.71,10.0,WNW,10.4,18.4,N/A,,Overcast,300,2014-01-30 18:36:00
12:56 PM,-0.4,-11.2,60,29.72,10.0,WNW,11.5,21.9,N/A,,Overcast,290,2014-01-30 18:56:00
1:16 PM,1.4,-11.2,56,29.72,10.0,NW,9.2,20.7,N/A,,Overcast,320,2014-01-30 19:16:00
1:36 PM,1.4,-11.2,56,29.72,10.0,WNW,13.8,18.4,N/A,,Mostly Cloudy,300,2014-01-30 19:36:00
1:56 PM,1.4,-11.2,56,29.73,10.0,WNW,10.4,18.4,N/A,,Scattered Clouds,300,2014-01-30 19:56:00
2:16 PM,1.4,-11.2,56,29.73,10.0,WNW,13.8,20.7,N/A,,Clear,300,2014-01-30 20:16:00
2:36 PM,1.4,-11.2,56,29.74,10.0,WNW,11.5,19.6,N/A,,Clear,290,2014-01-30 20:36:00
2:56 PM,1.4,-11.2,56,29.75,10.0,NW,10.4,17.3,N/A,,Clear,310,2014-01-30 20:56:00
3:16 PM,1.4,-11.2,56,29.76,10.0,NW,10.4,-,N/A,,Clear,310,2014-01-30 21:16:00
3:36 PM,1.4,-11.2,56,29.77,10.0,NW,8.1,-,N/A,,Clear,310,2014-01-30 21:36:00
3:56 PM,-0.4,-11.2,60,29.78,10.0,NW,10.4,17.3,N/A,,Clear,310,2014-01-30 21:56:00
4:16 PM,-0.4,-11.2,60,29.79,10.0,WNW,10.4,-,N/A,,Clear,300,2014-01-30 22:16:00
4:36 PM,-0.4,-13.0,55,29.79,10.0,WNW,11.5,-,N/A,,Clear,300,2014-01-30 22:36:00
4:56 PM,-2.2,-14.8,55,29.79,10.0,WNW,11.5,21.9,N/A,,Clear,290,2014-01-30 22:56:00
5:16 PM,-4.0,-14.8,60,29.81,10.0,WNW,8.1,18.4,N/A,,Clear,290,2014-01-30 23:16:00
5:36 PM,-5.8,-16.6,60,29.82,10.0,WNW,9.2,-,N/A,,Clear,290,2014-01-30 23:36:00
5:56 PM,-5.8,-16.6,60,29.83,10.0,WNW,8.1,-,N/A,,Clear,290,2014-01-30 23:56:00
6:16 PM,-7.6,-16.6,65,29.84,10.0,WNW,9.2,-,N/A,,Clear,290,2014-01-31 00:16:00
6:36 PM,-7.6,-16.6,65,29.85,10.0,WNW,5.8,-,N/A,,Clear,290,2014-01-31 00:36:00
6:56 PM,-7.6,-16.6,65,29.85,10.0,WNW,10.4,16.1,N/A,,Clear,300,2014-01-31 00:56:00
7:16 PM,-7.6,-16.6,65,29.86,10.0,WNW,8.1,-,N/A,,Clear,290,2014-01-31 01:16:00
7:36 PM,-9.4,-16.6,71,29.86,10.0,WNW,9.2,-,N/A,,Clear,300,2014-01-31 01:36:00
7:56 PM,-9.4,-16.6,71,29.87,10.0,WNW,6.9,-,N/A,,Clear,290,2014-01-31 01:56:00
8:16 PM,-9.4,-16.6,71,29.88,10.0,WNW,8.1,-,N/A,,Clear,290,2014-01-31 02:16:00
8:36 PM,-9.4,-16.6,71,29.89,10.0,WNW,8.1,-,N/A,,Clear,290,2014-01-31 02:36:00
8:56 PM,-9.4,-18.4,65,29.90,10.0,West,5.8,-,N/A,,Clear,260,2014-01-31 02:56:00
9:16 PM,-11.2,-18.4,70,29.91,10.0,West,8.1,-,N/A,,Clear,270,2014-01-31 03:16:00
9:36 PM,-11.2,-18.4,70,29.92,10.0,West,6.9,-,N/A,,Clear,270,2014-01-31 03:36:00
9:56 PM,-11.2,-18.4,70,29.92,10.0,West,5.8,-,N/A,,Clear,270,2014-01-31 03:56:00
10:16 PM,-11.2,-18.4,70,29.92,10.0,West,4.6,-,N/A,,Clear,270,2014-01-31 04:16:00
10:36 PM,-11.2,-18.4,70,29.92,10.0,West,3.5,-,N/A,,Clear,260,2014-01-31 04:36:00
10:56 PM,-14.8,-18.4,84,29.93,10.0,Calm,Calm,-,N/A,,Clear,0,2014-01-31 04:56:00
11:16 PM,-14.8,-18.4,84,29.93,10.0,Calm,Calm,-,N/A,,Clear,0,2014-01-31 05:16:00
11:36 PM,-18.4,-23.8,76,29.93,10.0,Calm,Calm,-,N/A,,Clear,0,2014-01-31 05:36:00
11:56 PM,-16.6,-22.0,76,29.93,5.0,Calm,Calm,-,N/A,,Haze,0,2014-01-31 05:56:00